MIDAS 5 DEB, 274

Orbit data source: Space-Track

MIDAS 5 DEB, 274 is space debris in LEO originally from a launch on Mon, 09 Apr 1962 UTC launched from the Air Force Western Test Range (AFWTR). Debris objects in space refer to the collection of defunct objects orbiting the Earth. Examples of debris include non-operational satellites, rocket bodies, and fragments generated from explosions, collisions, or faulty payload assembly.

Loading next visibility...
Identifier
274, 1962-010D
Orbit
LEO
Country
Flag of USUS
Related business
Manufacturer
Unknown
Mission
Spacecraft
Bus & Motor
Unknown
Mass
~10 kg wet, ~10 kg dry
Launch date (UTC)
1962-04-09 (63 years ago)
Launch vehicle
Unknown
Launch site
Air Force Western Test Range (AFWTR)
Object type
Payload
Rocket body
Debris
Shape & HBR
Unknown
Radar Cross Section
Medium (>0.1 m² and <1 m²)

Expand to show TLE details & history
Last TLE update: 15 hours ago

TLE from 15 hours ago
0 MIDAS 5 DEB
1 00274U 62010D   25261.28129936 -.00000034  00000-0 -80287-2 0  9994
2 00274  86.6777  12.9128 0352447 141.5656 221.0918  9.39385315175251
Epoch: 2025-09-18T06:45Z
TLE epoch observation values (Epoch: 2025-09-18T06:45:04.264Z)
Latitude
-0.00006°
Longitude
-85.80012°
Altitude
3,369.08 km
Speed
6.308 km/s
True Right ascension
00h 51m 39s
True Declination
0° 00' 00"
Sunlit
Object was in full shadow at epoch
Visualization orbit readout
Latitude
Unknown
Longitude
Unknown
Altitude
Unknown
Speed
Unknown
Apparent Right ascension
Unknown
Apparent Declination
Unknown
Sunlit
N/A
Visualization observer readout
Local Sidereal Time
14:41:14
Azimuth
Unknown
Elevation
Unknown
Doppler factor
Unknown
Orbital elements
Apogee altitude
3,441.843 km
Perigee altitude
2,773.204 km
Semi-major axis
9,485.66 km
Eccentricity
0.03524
Inclination
86.6777°
RAAN
12.9128°
Arg. of periapsis
141.5656°
True anomaly
218.52353°
Mean anomaly
221.0918°
Eccentric anomaly
219.7992°
Mean motion
2.34932 °/min
Orbital period
153.24 mins
BSTAR
-0.0080287
Loading maneuver chart data...
Computing Atmospheric mass density...
Loading historical data...
Loading historical data...
Loading historical data...
Loading historical data...
Loading historical data...
Loading historical data...
Loading historical data...

Documentation

Showing up to 5 results
|